Onatchiway, Canada
Current Conditions -  °F | °C
As of 4:00 PM on Thursday 23 Oct 2014 (Local Time) from CYBG Reporting Station
Few Clouds Few Clouds  
Wind Chill: 52°   Ceiling: Unl
Heat Index: 52°   Visibility: 25mi
Dew Point: 32°   Wind: 3mph
Humidity: 47%   Direction: 60°ENE
Pressure: 30.13"   Gusts: NA
Location:  48.88°N, 71.02°W
Report Text: CYBG 232000Z 06003KT 25SM FEW200 FEW240 11/M00 A3013 RMK CI1CI1 SLP211
Loading
Personal Weather Stations






























Interactive Weather Map
Tropical Storm Tracking
New forecast layout! Learn more

10-Day Weather Forecast

Advertisements
Track Severe Weather on mobile